Location: Billings, MT
(45.7828°N, 108.5373°W)
Time: 12:29:51
(UTC-07:00)

ISS - Visible Passes

Search period start: 12 December 2025 00:00
Search period end: 22 December 2025 00:00
Orbit: 416 x 420 km, 51.6° (Epoch: 12 December)

Date Brightness Start Highest point End Pass type
(mag) Time Alt. Az. Time Alt. Az. Time Alt. Az.
12 Dec -0.5 06:10:44 10° SSE 06:12:23 13° SE 06:14:03 10° ESE visible
13 Dec -2.8 06:57:29 10° SW 07:00:45 51° SE 07:04:03 10° ENE visible
14 Dec -1.9 06:09:49 10° SSW 06:12:51 32° SE 06:15:55 10° ENE visible
15 Dec -1.3 05:23:49 17° SSE 05:24:59 20° SE 05:27:33 10° E visible
15 Dec -3.8 06:58:06 10° WSW 07:01:28 71° NNW 07:04:51 10° ENE visible
16 Dec -0.2 04:38:36 10° ESE 04:38:36 10° ESE 04:38:42 10° ESE visible
16 Dec -3.7 06:11:34 25° SW 06:13:25 78° SSE 06:16:48 10° ENE visible
17 Dec -2.5 05:26:03 41° ESE 05:26:03 41° ESE 05:28:40 10° ENE visible
17 Dec -3.2 06:59:01 10° W 07:02:14 40° NNW 07:05:27 10° NE visible
18 Dec -0.2 04:40:19 11° ENE 04:40:19 11° ENE 04:40:24 10° ENE visible
18 Dec -3.5 06:13:15 41° WNW 06:14:02 52° NNW 06:17:21 10° ENE visible
19 Dec -2.1 05:27:20 31° NE 05:27:20 31° NE 05:29:14 10° ENE visible
19 Dec -2.7 07:00:16 12° WNW 07:03:00 30° N 07:06:02 10° ENE visible
20 Dec -2.9 06:14:13 32° NNW 06:14:42 34° NNW 06:17:49 10° NE visible
21 Dec -1.7 05:28:04 23° NE 05:28:04 23° NE 05:29:37 10° NE visible
21 Dec -2.5 07:00:59 12° WNW 07:03:41 29° N 07:06:42 10° ENE visible
